Station RDYD1 - 8551910 - Reedy Point, DE Image indicating link to RSS feed of recent meteorological observations for station RDYD1


Conditions at RDYD1 as of
(9:18 am EDT)
1318 GMT on 07/15/2024:
     

Click on the graph icon in the table below to see a time series plot of the last five days of that observation.

5-day plot - Atmospheric Pressure Atmospheric Pressure (PRES):29.90 in
5-day plot - Air Temperature Air Temperature (ATMP): 83.1 °F
5-day plot - Water Temperature Water Temperature (WTMP): 85.8 °F
NOS Water Level Observation Network Water Level
Previous observations
TIME
(EDT)
5-day plot - Wind Direction
WDIR
 
5-day plot - Wind Speed
WSPD
kts
5-day plot - Wind Gust
GST
kts
5-day plot - Wave Height
WVHT
ft
5-day plot - Dominant Wave Period
DPD
sec
5-day plot - Average Wave Period
APD
sec
5-day plot - Mean Wave Direction
MWD
 
5-day plot - Atmospheric Pressure
PRES
in
5-day plot - Pressure Tendency
PTDY
in
5-day plot - Air Temperature
ATMP
°F
5-day plot - Water Temperature
WTMP
°F
5-day plot - Dew Point
DEWP
°F
5-day plot - Salinity
SAL
psu
5-day plot - Visibility
VIS
nmi
5-day plot - Tide (above MLLW)
TIDE
ft
2024-07-15 09:12 am-------29.90- 84.0 85.8----
2024-07-15 09:06 am-------29.90- 84.2 85.8----
2024-07-15 09:00 am-------29.90+0.01 84.6 85.8----
2024-07-15 08:54 am-------29.90- 84.0 85.8----
2024-07-15 08:48 am-------29.90- 83.1 85.8----
2024-07-15 08:42 am-------29.90- 82.8 85.8----
2024-07-15 08:36 am-------29.91- 82.4 85.8----
2024-07-15 08:30 am-------29.91- 82.0 85.8----
2024-07-15 08:24 am-------29.91- 81.9 85.8----
2024-07-15 08:18 am-------29.91- 81.9 85.8----
2024-07-15 08:12 am-------29.91- 81.5 85.8----
2024-07-15 08:06 am-------29.91- 81.1 85.8----
2024-07-15 08:00 am-------29.91+0.02 80.6 85.8----
2024-07-15 07:54 am-------29.91- 80.4 85.8----
2024-07-15 07:48 am-------29.91- 80.6 85.8----
2024-07-15 07:42 am-------29.91- 81.0 85.6----
2024-07-15 07:36 am-------29.91- 81.0 85.6----
2024-07-15 07:30 am-------29.91- 80.6 85.6----
2024-07-15 07:24 am-------29.91- 80.6 85.6----
2024-07-15 07:18 am-------29.91- 80.2 85.6----
2024-07-15 07:12 am-------29.91- 80.1 85.6----
2024-07-15 07:06 am-------29.91- 79.5 85.6----
2024-07-15 07:00 am-------29.90+0.02 79.2 85.6----
2024-07-15 06:54 am-------29.90- 78.6 85.6----
2024-07-15 06:48 am-------29.90- 78.3 85.6----
2024-07-15 06:42 am-------29.90- 77.7 85.6----
2024-07-15 06:36 am-------29.89- 77.4 85.6----
2024-07-15 06:30 am-------29.89- 76.8 85.6----
2024-07-15 06:24 am-------29.89- 76.5 85.6----
2024-07-15 06:18 am-------29.88- 76.5 85.6----
2024-07-15 06:12 am-------29.88- 76.5 85.6----
2024-07-15 06:06 am-------29.88- 76.3 85.6----
2024-07-15 06:00 am-------29.88+0.00 76.3 85.6----
2024-07-15 05:54 am-------29.88- 76.3 85.6----
2024-07-15 05:48 am-------29.88- 76.3 85.6----
2024-07-15 05:42 am-------29.88- 76.3 85.6----
2024-07-15 05:36 am-------29.88- 76.5 85.6----
2024-07-15 05:30 am-------29.88- 76.5 85.5----
2024-07-15 05:24 am-------29.88- 76.5 85.5----
2024-07-15 05:18 am-------29.88- 76.5 85.5----
2024-07-15 05:12 am-------29.88- 76.5 85.5----
2024-07-15 05:06 am-------29.88- 76.6 85.5----
2024-07-15 05:00 am-------29.88-0.01 76.6 85.5----
2024-07-15 04:54 am-------29.88- 76.6 85.5----
2024-07-15 04:48 am-------29.88- 76.8 85.5----
2024-07-15 04:42 am-------29.88- 76.8 85.5----
2024-07-15 04:36 am-------29.88- 76.8 85.5----
2024-07-15 04:30 am-------29.88- 77.0 85.3----
2024-07-15 04:24 am-------29.88- 77.0 85.3----
2024-07-15 04:18 am-------29.88- 77.0 85.3----
2024-07-15 04:12 am-------29.88- 77.0 85.3----
2024-07-15 04:06 am-------29.88- 77.0 85.3----
2024-07-15 04:00 am-------29.88-0.03 77.0 85.3----
2024-07-15 03:54 am-------29.88- 76.6 85.3----
2024-07-15 03:48 am-------29.88- 76.6 85.3----
2024-07-15 03:42 am-------29.88- 76.8 85.3----
2024-07-15 03:36 am-------29.88- 77.0 85.1----
2024-07-15 03:30 am-------29.88- 77.2 85.1----
2024-07-15 03:24 am-------29.87- 77.2 85.1----
2024-07-15 03:18 am-------29.87- 77.2 85.1----
2024-07-15 03:12 am-------29.87- 77.2 85.1----
2024-07-15 03:06 am-------29.88- 77.2 85.1----
2024-07-15 03:00 am-------29.88-0.04 77.2 85.1----
2024-07-15 02:54 am-------29.88- 77.2 85.1----
2024-07-15 02:48 am-------29.89- 77.0 85.1----
2024-07-15 02:42 am-------29.89- 77.2 85.1----
2024-07-15 02:36 am-------29.89- 77.2 85.1----
2024-07-15 02:30 am-------29.89- 77.4 85.1----
2024-07-15 02:24 am-------29.89- 77.4 85.1----
2024-07-15 02:18 am-------29.89- 77.4 85.1----
2024-07-15 02:12 am-------29.89- 77.4 85.1----
2024-07-15 02:06 am-------29.90- 77.2 85.1----
2024-07-15 02:00 am-------29.90-0.03 77.2 85.1----
2024-07-15 01:54 am-------29.90- 77.2 85.1----
2024-07-15 01:48 am-------29.90-- 85.1----
2024-07-15 01:42 am-------29.90-- 85.1----
2024-07-15 01:36 am-------29.91-- 85.1----
2024-07-15 01:30 am-------29.91- 77.2 85.3----
2024-07-15 01:24 am-------29.91- 77.2 85.3----
2024-07-15 01:18 am-------29.92- 77.4 85.5----
2024-07-15 01:12 am-------29.91- 77.4 85.5----
2024-07-15 01:06 am-------29.92- 77.5 85.5----
2024-07-15 01:00 am-------29.91-0.02 77.7 85.5----
2024-07-15 12:54 am-------29.92- 77.9 85.5----
2024-07-15 12:48 am-------29.92- 78.1 85.5----
2024-07-15 12:42 am-------29.92- 78.3 85.5----
2024-07-15 12:36 am-------29.92- 78.3 85.5----
2024-07-15 12:30 am-------29.92-- 85.5----
2024-07-15 12:24 am-------29.92-- 85.6----
2024-07-15 12:18 am-------29.92- 78.6 85.6----
2024-07-15 12:12 am-------29.92- 78.8 85.6----
2024-07-15 12:06 am-------29.92- 78.8 85.6----
2024-07-15 12:00 am-------29.92-0.02 78.8 85.6----
2024-07-14 11:54 pm-------29.92- 78.6 85.6----
2024-07-14 11:48 pm-------29.92- 78.4 85.6----
2024-07-14 11:42 pm-------29.92- 78.6 85.6----
2024-07-14 11:36 pm-------29.92- 78.4 85.6----
2024-07-14 11:30 pm-------29.92- 78.4 85.6----
2024-07-14 11:24 pm-------29.92- 78.4 85.6----
2024-07-14 11:18 pm-------29.92- 78.4 85.6----
2024-07-14 11:12 pm-------29.92- 78.6 85.5----
2024-07-14 11:06 pm-------29.92- 78.6 85.5----
2024-07-14 11:00 pm-------29.92+0.00 78.6-----
2024-07-14 10:54 pm-------29.92- 78.8-----
2024-07-14 10:48 pm-------29.92- 78.8 85.3----
2024-07-14 10:42 pm-------29.92- 78.8 85.8----
2024-07-14 10:36 pm-------29.93- 79.0 85.8----
2024-07-14 10:30 pm-------29.93- 79.0 85.8----
2024-07-14 10:24 pm-------29.93- 79.0 85.8----
2024-07-14 10:18 pm-------29.93- 79.0 85.8----
2024-07-14 10:12 pm-------29.93- 79.0 85.8----
2024-07-14 10:06 pm-------29.93- 79.2 85.8----
2024-07-14 10:00 pm-------29.93-0.01 79.5 85.8----
2024-07-14 09:54 pm-------29.93- 79.7 85.8----
2024-07-14 09:48 pm-------29.93- 80.1 85.8----
2024-07-14 09:42 pm-------29.93- 80.2 85.8----
2024-07-14 09:36 pm-------29.93- 80.4 86.0----
2024-07-14 09:30 pm-------29.93- 80.6 86.0----
2024-07-14 09:24 pm-------29.93- 80.8 86.0----
2024-07-14 09:18 pm-------29.93-- 86.0----
2024-07-14 09:12 pm-------29.93-- 86.0----
2024-07-14 09:06 pm-------29.93-- 86.0----
2024-07-14 09:00 pm-------29.93-0.01 81.5 86.2----
2024-07-14 08:54 pm-------29.93- 81.5 86.2----
2024-07-14 08:48 pm-------29.93-- 86.2----
2024-07-14 08:42 pm-------29.93-- 86.2----
2024-07-14 08:36 pm-------29.93-- 86.2----
2024-07-14 08:30 pm-------29.93- 82.2 86.2----
2024-07-14 08:24 pm-------29.93- 82.8 86.2----
2024-07-14 08:18 pm-------29.93-- 86.2----
2024-07-14 08:12 pm-------29.93-- 86.2----
2024-07-14 08:06 pm-------29.93-- 86.2----
2024-07-14 08:00 pm-------29.93-0.02- 86.0----
2024-07-14 07:54 pm-------29.93-- 86.0----
2024-07-14 07:48 pm-------29.93- 85.8 86.0----
2024-07-14 07:42 pm-------29.93- 85.5 86.0----
2024-07-14 07:36 pm-------29.94- 84.7 86.0----
2024-07-14 07:30 pm-------29.94-- 86.0----
2024-07-14 07:24 pm-------29.94-- 86.0----
2024-07-14 07:00 pm-------29.94+0.00 88.3 86.5----
2024-07-14 06:54 pm-------29.94- 88.0 86.5----
2024-07-14 06:48 pm-------29.94- 88.0 86.5----
2024-07-14 06:42 pm-------29.94- 87.4 86.5----
2024-07-14 06:36 pm-------29.94- 86.7 86.7----
2024-07-14 06:30 pm-------29.94- 86.9 86.7----
2024-07-14 06:24 pm-------29.95- 88.3 86.7----
2024-07-14 06:18 pm-------29.95- 87.1 86.9----
2024-07-14 06:12 pm-------29.95- 85.1 86.9----
2024-07-14 06:06 pm-------29.95- 83.7 86.9----
2024-07-14 06:00 pm-------29.95-0.01- 86.9----
2024-07-14 05:54 pm-------29.95-- 86.9----
2024-07-14 05:48 pm-------29.94- 84.4 86.9----
2024-07-14 05:42 pm-------29.94- 84.2 86.9----
2024-07-14 05:36 pm-------29.94- 84.0 86.7----
2024-07-14 05:30 pm-------29.94-- 86.7----
2024-07-14 05:24 pm-------29.94-- 86.7----
2024-07-14 05:18 pm-------29.95- 84.0 86.7----
2024-07-14 05:12 pm-------29.95- 84.2 86.7----
2024-07-14 05:06 pm-------29.95- 84.2 86.9----
2024-07-14 05:00 pm-------29.95-0.02 84.2 86.9----
2024-07-14 04:54 pm-------29.95- 84.4 86.9----
2024-07-14 04:48 pm-------29.96- 84.4 86.7----
2024-07-14 04:42 pm-------29.96- 84.6 86.7----
2024-07-14 04:36 pm-------29.96- 84.9 86.7----
2024-07-14 04:30 pm-------29.95- 85.3 86.7----
2024-07-14 04:24 pm-------29.94- 85.8 86.7----
2024-07-14 04:18 pm-------29.94-- 86.7----
2024-07-14 04:12 pm-------29.93-- 86.7----
2024-07-14 04:06 pm-------29.94-- 86.7----
2024-07-14 04:00 pm-------29.94-- 86.7----
2024-07-14 03:54 pm-------29.95-- 86.7----
2024-07-14 03:48 pm-------29.95- 90.1 86.7----
2024-07-14 03:42 pm-------29.95- 91.4 86.5----
2024-07-14 03:36 pm-------29.95- 91.6 86.5----
2024-07-14 03:30 pm-------29.94-- 86.5----
2024-07-14 03:24 pm-------29.94-- 86.5----
2024-07-14 03:18 pm-------29.94- 90.3 86.5----
2024-07-14 03:12 pm-------29.95- 90.3 86.5----
2024-07-14 03:06 pm-------29.95- 89.8 86.5----
2024-07-14 03:00 pm-------29.96-0.06 90.0 86.4----
2024-07-14 02:54 pm-------29.96- 90.1 86.4----
2024-07-14 02:48 pm-------29.96- 89.6 86.4----
2024-07-14 02:42 pm-------29.96- 90.3 86.4----
2024-07-14 02:36 pm-------29.96- 91.6 86.4----
2024-07-14 02:30 pm-------29.96-- 86.4----
2024-07-14 02:24 pm-------29.97-- 86.4----
2024-07-14 02:18 pm-------29.97-------
2024-07-14 02:12 pm-------29.98-------
2024-07-14 02:06 pm-------29.98-------
2024-07-14 02:00 pm-------29.98-0.06 92.1 86.4----
2024-07-14 01:54 pm-------29.98- 92.3 86.4----
2024-07-14 01:48 pm-------29.98-- 86.2----
2024-07-14 01:42 pm-------29.98-- 86.2----
2024-07-14 01:36 pm-------29.99-- 86.2----
2024-07-14 01:30 pm-------29.99-- 86.2----
2024-07-14 01:24 pm-------29.99-- 86.0----
2024-07-14 01:18 pm-------29.99- 92.5 86.0----
2024-07-14 01:12 pm-------30.00- 92.3 86.0----
2024-07-14 01:06 pm-------30.00- 91.9 86.0----
2024-07-14 01:00 pm--------- 92.1 86.0----
2024-07-14 12:54 pm--------- 91.0 86.0----
2024-07-14 12:48 pm-------30.01- 90.9 86.0----
2024-07-14 12:42 pm-------30.01- 90.3 86.0----
2024-07-14 12:36 pm-------30.01- 90.3 86.0----
2024-07-14 12:30 pm-------30.01- 90.3 86.0----
2024-07-14 12:24 pm-------30.02- 90.3 86.0----
2024-07-14 12:18 pm-------30.02- 89.8 85.6----
2024-07-14 12:12 pm-------30.02- 89.6 85.5----
2024-07-14 12:06 pm-------30.02- 88.9 85.3----
2024-07-14 12:00 pm-------30.02-0.02 88.5 85.3----
2024-07-14 11:54 am-------30.03- 87.8 85.3----
2024-07-14 11:48 am-------30.03-- 85.3----
2024-07-14 11:42 am-------30.03-- 85.3----
2024-07-14 11:36 am-------30.03-- 85.3----
2024-07-14 11:30 am-------30.03- 87.3 85.1----
2024-07-14 11:24 am-------30.03- 87.8 85.1----
2024-07-14 11:18 am-------30.03- 88.7 85.1----
2024-07-14 11:12 am-------30.03- 88.0 85.1----
2024-07-14 11:06 am-------30.03- 87.3 84.9----
2024-07-14 11:00 am-------30.03+0.00 86.7 84.9----
2024-07-14 10:54 am-------30.03- 86.2 84.9----
2024-07-14 10:48 am--------- 86.2 84.9----
2024-07-14 10:42 am--------- 85.5 84.9----
2024-07-14 10:36 am--------- 85.5 84.9----
2024-07-14 10:30 am-------30.04- 85.6 84.9----
2024-07-14 10:24 am-------30.04- 86.2 84.9----
2024-07-14 10:18 am-------30.04- 86.9 84.9----
2024-07-14 10:12 am-------30.04- 87.4 84.9----
2024-07-14 10:06 am-------30.04- 87.6 84.9----
2024-07-14 10:00 am-------30.03+0.00 86.9 84.9----
2024-07-14 09:54 am-------30.03- 86.5 84.9----